Temperature
15 15 15 15 15 15 15 15 15 15 15 15 15 15 15 15 15 15 15 15 15 15 15 15 15 15 15 15 16 15 15 15 15 15 15 16 15 15 15 15 15 15 15
15 15 15 15 15 15 15 15 15 15 15 15 15 15 15 15 15 15 15 15 15 15 15 15 15 15 15 15 15 15 15 15 15 15 15 15 15 15 15 15 15 15 15
15 15 15 15 15 15 15 15 15 15 15 15 15 15 15 15 15 15 15 15 15 15 15 15 15 15 15 15 15 15 15 15 15 15 15 15 15 15 15 15 15 15 15
15 15 15 15 15 15 15 15 15 14 14 14 14 14 14 14 14 14 14 14 14 15 15 15 15 15 15 15 15 15 15 15 15 14 14 15 14 14 14 14 14 15 15
15 15 15 15 14 14 14 14 14 14 14 14 14 14 14 14 14 14 14 14 14 14 14 14 14 14 14 14 14 14 14 14 14 14 14 14 14 14 14 14 14 14 14
15 15 15 14 14 14 14 14 14 14 14 14 14 14 14 14 14 14 14 14 14 14 14 14 14 14 14 14 14 14 14 14 14 14 14 14 14 14 14 14 14 14 14
15 14 14 14 14 14 14 14 14 13 13 13 14 13 13 13 13 13 13 13 13 13 13 14 14 14 14 14 13 13 13 14 13 13 13 13 13 13 13 14 14 13 13
14 14 14 14 14 14 13 13 13 13 13 13 13 13 13 13 13 13 13 13 13 13 13 13 13 13 13 13 13 13 13 13 13 13 13 13 13 13 13 13 13 13 13
14 14 14 14 14 13 13 13 13 13 13 13 13 13 13 12 12 12 12 13 13 13 13 13 13 13 13 13 13 13 13 13 13 13 13 13 13 13 13 13 13 13 13
14 14 14 14 13 13 13 13 13 13 13 13 12 12 12 12 12 12 12 12 12 12 12 12 12 12 12 12 12 12 12 12 12 13 12 12 12 12 12 12 12 12 12
14 14 14 13 13 13 13 13 13 13 12 12 12 12 12 12 12 12 12 12 12 12 12 12 12 12 12 12 12 12 12 12 12 12 12 12 12 12 12 12 12 12 12
14 14 13 13 13 13 13 13 12 12 12 12 12 12 12 12 12 12 11 11 11 12 12 12 12 12 12 12 12 12 12 12 12 12 12 12 12 12 12 12 12 12 12
14 14 13 13 13 13 13 12 12 12 12 12 12 12 12 11 11 11 11 11 11 11 11 11 11 11 11 11 12 11 11 12 12 12 12 12 12 12 12 12 12 11 11
14 14 13 13 13 13 12 12 12 12 12 11 11 11 11 11 11 11 11 11 11 11 11 11 11 11 11 11 11 11 11 11 11 11 11 11 11 11 11 11 11 11 11
14 13 13 13 13 12 12 12 12 12 11 11 11 11 11 11 11 11 11 11 11 10 10 11 11 11 11 11 11 11 11 11 11 11 11 11 11 11 11 11 11 11 11
13 13 13 13 13 12 12 12 12 11 11 11 11 11 11 11 11 11 10 10 10 10 10 10 10 11 11 11 10 10 10 11 11 11 11 11 11 11 11 11 11 11 11
13 13 13 13 12 12 12 12 11 11 11 11 11 11 11 11 10 10 10 10 10 10 10 10 10 10 10 10 10 10 10 10 10 10 10 10 10 10 10 10 10 10 10
13 13 13 13 12 12 12 12 11 11 11 11 11 10 10 10 10 10 10 10 10 10 10 10 10 10 10 10 10 10 10 10 10 10 10 10 10 10 10 10 10 10 10
13 13 13 12 12 12 12 12 11 11 11 10 10 10 10 10 10 10 10 10 10 10 10 9 10 9 9 9 9 9 9 9 9 9 9 9 9 9 9 9 9 9 9
13 13 12 12 12 12 11 11 11 11 10 10 10 10 10 10 10 10 10 10 9 9 9 9 9 9 9 9 9 9 9 9 9 9 9 9 9 9 9 9 9 9 9
13 12 12 12 11 11 11 11 11 10 10 10 10 10 10 10 9 9 9 9 9 9 9 9 9 9 9 9 9 9 8 9 9 9 9 9 9 9 9 9 9 9 9
12 12 12 12 11 11 11 11 10 10 10 10 10 10 10 9 9 9 9 9 9 9 9 8 9 8 8 8 8 8 8 8 8 8 8 8 8 8 8 8 8 8 8
12 12 12 11 11 11 11 10 10 10 10 9 9 9 9 9 9 9 9 8 8 8 8 8 8 8 8 8 8 8 7 7 7 7 7 8 8 8 8 8 8 8 8
12 12 11 11 11 11 10 10 10 9 9 9 9 9 9 9 9 8 8 8 8 8 8 8 8 8 8 7 7 7 7 7 7 7 7 7 7 7 7 7 7 8 8
11 11 11 11 11 10 10 10 9 9 9 9 9 9 8 8 8 8 8 8 8 8 8 7 7 7 7 7 7 7 7 6 6 7 7 7 7 7 7 7 7 7 7
11 11 11 11 10 10 10 10 9 9 9 9 9 8 8 8 8 8 8 8 8 8 7 7 7 7 7 7 7 7 6 6 6 6 6 6 6 6 6 7 7 7 7
Wind_Speed
3 2 2 3 4 5 4 4 4 4 5 5 5 5 4 5 5 5 5 6 5 5 6 6 6 5 5 6 6 6 6 6 6 6 6 6 6 6 6 6 6 7 7
4 3 2 2 3 4 4 4 4 4 4 4 5 5 5 5 4 4 4 5 6 6 5 5 5 4 5 5 6 6 6 7 7 7 6 6 5 5 5 5 5 6 6
5 4 2 2 2 4 5 5 5 4 4 4 4 4 4 4 4 4 4 4 5 6 6 5 5 4 5 5 5 6 7 6 6 6 5 5 5 5 5 5 5 5 5
7 5 3 2 3 4 4 3 3 3 4 3 3 3 3 3 3 4 4 5 5 5 5 7 6 6 5 6 6 7 7 6 6 5 4 4 4 4 4 5 5 5 5
7 6 3 2 4 4 3 3 3 3 3 3 2 3 3 3 3 4 4 4 5 5 5 5 7 7 6 6 7 6 6 6 5 5 4 4 4 4 4 4 4 4 4
6 6 4 3 4 3 3 3 3 3 2 2 3 3 3 3 3 3 3 3 4 4 4 5 5 5 6 6 6 6 6 5 5 5 4 3 3 3 3 3 3 4 4
6 6 3 3 3 3 2 3 3 3 3 2 3 3 4 4 4 3 3 3 4 4 4 4 4 4 4 6 6 6 6 6 5 5 4 4 3 3 3 3 3 3 3
6 5 4 3 3 3 3 3 3 2 1 2 2 2 2 4 4 4 3 3 3 3 4 4 4 5 4 4 5 5 5 5 5 4 4 4 4 4 4 3 3 3 3
5 5 5 4 3 3 3 2 2 3 2 1 1 3 2 1 2 3 3 3 3 2 2 3 4 4 4 4 4 4 4 4 4 4 4 4 4 4 4 4 3 3 3
4 5 5 5 3 3 3 2 2 2 3 1 1 1 2 3 2 1 3 3 3 2 2 2 3 3 4 4 4 4 4 3 3 3 3 3 3 3 3 3 3 3 3
2 4 5 4 3 3 2 2 2 2 2 2 1 1 2 2 1 2 1 3 3 3 2 2 2 3 3 3 2 2 2 3 3 3 3 3 3 3 3 2 2 2 2
1 2 3 3 3 3 3 2 2 2 2 2 1 1 2 2 1 2 1 1 1 2 2 2 2 1 1 2 2 1 1 1 2 2 2 2 2 2 2 2 2 2 1
2 3 3 3 3 3 3 3 2 2 2 2 2 1 1 1 2 2 2 1 0 1 2 2 1 1 1 2 2 2 2 1 2 2 2 2 2 2 2 2 2 2 1
4 4 4 4 3 3 3 3 2 2 2 2 2 2 1 1 1 2 2 2 1 1 1 2 2 1 2 1 2 2 2 2 1 1 1 2 2 2 2 2 2 2 2
4 4 4 4 3 3 3 3 2 2 2 2 1 1 1 1 1 1 2 3 3 2 2 2 1 2 2 1 2 1 2 3 2 2 1 1 1 1 2 2 2 1 2
4 4 4 4 4 3 3 3 2 2 2 1 1 1 1 1 1 1 1 1 2 3 2 2 2 2 1 1 2 1 1 2 2 2 1 1 0 0 1 1 1 0 1
5 5 5 5 4 3 3 3 3 2 2 2 1 2 2 2 1 1 1 1 1 2 2 1 1 1 0 1 2 2 2 2 2 2 2 2 2 1 0 1 0 0 1
5 5 5 5 4 4 4 4 4 3 3 3 2 2 2 2 2 1 1 1 1 1 3 2 1 1 1 1 1 1 2 2 3 3 3 3 3 2 2 2 2 2 2
5 4 4 4 4 4 4 4 4 4 3 3 3 3 3 3 2 2 2 2 1 1 2 2 1 1 1 1 1 2 2 2 3 3 3 3 3 2 2 2 3 3 3
5 5 4 4 4 5 5 5 4 4 3 3 3 3 3 4 4 4 3 3 2 2 2 2 1 1 1 1 0 1 2 2 2 2 3 3 3 3 3 4 4 4 4
5 5 4 4 3 4 5 6 5 4 4 3 2 3 3 4 4 4 3 3 4 3 2 1 1 1 1 1 1 1 1 2 2 1 1 2 2 2 3 4 4 4 4
4 4 4 4 4 5 7 8 7 5 4 4 3 2 2 3 3 4 4 4 5 5 4 3 2 3 3 3 2 1 1 1 2 2 1 2 1 2 3 3 4 5 5
4 4 4 4 5 5 7 8 8 6 5 4 4 3 2 2 2 2 3 3 4 5 5 5 5 5 5 4 3 2 2 3 3 3 1 3 2 3 3 4 5 6 5
5 5 5 5 4 5 7 9 9 6 4 4 4 4 4 3 3 4 3 2 3 3 5 4 5 6 5 5 5 5 4 3 2 2 1 2 2 3 3 4 5 5 5
4 4 4 5 5 5 7 8 8 4 3 4 3 3 4 4 4 4 4 3 2 3 3 4 4 4 4 5 4 2 2 1 2 3 1 1 2 2 2 2 4 5 5
5 5 4 4 5 5 5 7 7 4 4 3 2 2 3 3 3 3 4 4 4 4 2 2 2 3 2 3 4 5 5 4 2 2 2 2 1 1 2 2 1 2 3
Wind_Direction
109 93 79 70 61 63 66 60 58 50 49 50 56 63 65 73 76 69 61 65 71 74 76 77 79 94 102 101 103 106 110 114 111 104 100 94 90 91 92 92 91 93 95
117 106 84 68 66 78 82 77 68 57 49 55 48 50 58 69 73 71 66 59 57 60 62 66 68 88 106 105 106 105 100 105 107 100 93 91 89 91 99 100 95 94 91
115 112 98 76 79 89 86 78 64 64 58 54 47 43 54 64 68 66 65 59 51 49 51 53 55 77 103 102 101 101 100 101 101 99 92 89 93 94 93 96 95 94 94
112 106 96 84 94 91 86 79 70 68 56 48 40 30 40 53 51 58 63 59 53 45 45 50 51 64 88 94 99 100 97 93 91 92 94 92 95 99 98 99 95 96 97
110 108 100 98 98 88 77 85 72 79 76 55 44 38 34 42 37 57 56 54 54 53 48 48 48 57 73 83 92 94 90 87 84 82 86 89 93 103 105 105 103 102 102
108 106 103 95 95 84 72 81 81 64 76 62 56 40 23 23 39 49 50 56 55 50 48 48 44 49 65 73 82 88 86 88 80 77 76 80 90 105 112 117 116 107 104
108 107 102 96 90 93 102 103 96 77 52 54 62 32 15 22 33 30 36 47 46 45 51 52 52 55 61 64 70 78 79 80 77 77 71 67 74 96 108 118 123 118 112
118 119 114 115 107 97 87 89 99 93 60 54 95 82 25 360 6 14 23 39 35 45 47 49 58 61 62 60 59 70 73 73 71 70 69 65 70 83 96 101 108 119 125
124 125 127 124 125 119 128 117 119 117 117 22 85 122 128 214 315 341 3 21 19 30 31 46 61 63 72 65 54 57 65 62 59 58 63 67 74 81 83 84 90 98 105
129 131 135 134 137 134 139 150 124 122 124 116 11 52 133 155 150 327 340 355 7 23 13 34 41 44 62 70 63 59 56 52 46 49 59 71 75 82 84 80 81 90 97
139 140 146 142 148 154 157 144 124 116 125 141 139 93 72 65 89 134 290 331 349 347 358 22 57 44 50 53 61 71 47 40 37 38 58 70 68 77 81 72 71 70 82
205 164 154 152 158 169 174 173 159 146 146 140 139 127 134 134 161 131 169 255 310 320 341 14 56 33 36 25 30 46 29 32 29 30 38 52 50 52 53 62 62 50 72
202 207 170 167 174 184 178 169 160 171 167 161 161 167 168 174 165 150 144 174 266 314 346 345 343 355 7 15 7 18 28 38 36 26 24 42 35 33 33 51 42 40 40
200 194 177 173 173 170 170 167 168 183 168 177 184 169 164 190 160 153 159 150 107 344 341 297 327 337 340 356 354 21 22 9 356 343 3 27 24 23 25 33 18 30 22
192 181 173 174 176 170 167 167 176 189 178 188 187 169 168 206 173 160 155 155 154 177 263 274 299 311 334 350 350 9 13 1 355 345 327 335 6 17 15 14 8 19 20
184 176 176 175 178 177 166 157 165 189 168 191 179 157 175 194 163 143 151 146 149 161 205 257 254 283 307 340 336 345 307 326 333 343 315 281 295 277 357 2 15 53 28
181 180 183 179 178 179 178 165 174 169 171 190 189 171 198 175 161 164 147 136 134 139 170 274 305 301 326 349 347 331 315 303 292 305 301 273 259 244 244 295 273 260 295
184 184 181 179 184 182 179 176 186 176 175 183 192 167 186 160 152 159 158 172 175 159 158 193 295 320 296 298 337 343 335 319 287 289 294 279 256 240 231 245 253 255 273
178 178 173 182 190 188 184 187 184 182 186 190 188 182 193 161 170 180 178 181 186 154 134 158 227 280 287 331 355 335 340 333 319 303 292 279 267 268 247 249 257 263 268
178 178 181 194 195 191 186 183 180 186 189 193 199 198 200 188 194 189 185 184 165 144 134 144 188 253 267 288 37 325 328 317 317 334 328 303 287 279 269 261 254 260 265
182 180 181 192 192 193 191 181 181 181 186 200 212 213 208 200 200 193 190 182 166 159 159 167 201 234 260 236 242 230 268 303 305 326 329 325 317 295 270 264 257 263 264
180 177 186 192 196 207 196 183 175 178 184 196 215 229 226 211 212 207 202 185 177 175 185 189 211 221 237 236 230 226 240 292 289 293 272 295 302 282 270 262 259 257 259
179 186 194 193 203 215 198 188 185 176 181 195 205 213 222 217 206 194 199 190 201 198 189 187 203 222 222 221 203 218 227 223 243 257 226 272 280 275 267 270 266 256 257
185 192 198 201 203 214 204 196 190 178 182 197 204 204 210 223 211 195 181 187 216 225 218 203 208 223 223 211 202 209 218 230 266 268 180 248 277 267 275 269 266 256 256
188 194 195 197 201 216 211 201 188 177 188 211 217 211 205 211 223 200 179 191 226 257 241 221 226 231 234 224 198 165 172 185 269 269 224 203 263 281 285 282 270 260 257
193 190 196 203 203 213 211 200 186 176 188 206 226 230 217 211 215 193 188 192 214 239 235 246 260 264 251 238 215 197 196 201 226 253 231 189 240 286 299 290 279 276 275
Height
1534 1534 1533 1533 1533 1533 1533 1532 1532 1532 1531 1531 1531 1531 1531 1530 1530 1530 1529 1529 1528 1527 1527 1526 1525 1524 1524 1524 1524 1525 1525 1525 1526 1526 1527 1527 1528 1528 1528 1529 1529 1530 1530
1534 1534 1534 1533 1533 1533 1533 1533 1532 1532 1532 1531 1531 1531 1531 1531 1530 1530 1530 1529 1528 1527 1527 1526 1525 1524 1524 1524 1524 1525 1525 1525 1526 1526 1527 1527 1527 1528 1528 1529 1529 1530 1530
1534 1534 1534 1533 1533 1533 1533 1533 1532 1532 1532 1532 1531 1531 1531 1531 1531 1530 1530 1529 1529 1528 1527 1526 1525 1524 1524 1524 1524 1525 1525 1525 1526 1526 1526 1527 1527 1528 1528 1529 1529 1530 1530
1534 1534 1534 1533 1533 1533 1533 1532 1532 1532 1532 1532 1531 1531 1531 1531 1531 1530 1530 1529 1529 1528 1527 1527 1525 1524 1524 1525 1525 1525 1525 1526 1526 1526 1526 1527 1527 1528 1528 1528 1529 1530 1530
1534 1534 1533 1533 1533 1532 1532 1532 1532 1532 1531 1531 1531 1531 1531 1531 1530 1530 1530 1530 1529 1529 1528 1527 1526 1526 1525 1525 1525 1526 1526 1526 1526 1526 1526 1526 1527 1527 1528 1528 1529 1529 1529
1534 1533 1533 1532 1532 1532 1532 1531 1531 1531 1531 1531 1531 1531 1531 1531 1531 1530 1530 1530 1529 1529 1528 1528 1527 1527 1526 1526 1526 1526 1526 1526 1526 1526 1526 1526 1526 1527 1527 1528 1528 1529 1529
1533 1533 1532 1532 1531 1531 1531 1531 1531 1531 1531 1531 1531 1531 1531 1531 1531 1530 1530 1530 1529 1529 1528 1528 1528 1527 1527 1527 1527 1527 1527 1526 1526 1526 1526 1525 1525 1526 1527 1527 1528 1528 1528
1533 1532 1532 1531 1531 1531 1530 1530 1530 1530 1530 1530 1530 1530 1530 1532 1531 1530 1530 1530 1529 1529 1529 1528 1528 1528 1528 1527 1527 1527 1527 1527 1526 1526 1525 1525 1525 1525 1526 1527 1527 1527 1528
1532 1531 1531 1531 1530 1530 1530 1530 1529 1529 1529 1529 1530 1530 1530 1530 1530 1530 1530 1529 1529 1529 1528 1528 1528 1528 1528 1528 1528 1527 1527 1527 1526 1526 1525 1525 1525 1525 1526 1526 1527 1527 1527
1531 1530 1530 1530 1530 1529 1529 1529 1529 1529 1529 1529 1529 1529 1530 1530 1530 1529 1529 1529 1529 1528 1528 1528 1528 1528 1528 1528 1528 1527 1527 1527 1526 1526 1525 1525 1525 1525 1525 1526 1526 1526 1526
1529 1529 1529 1529 1529 1528 1528 1528 1528 1528 1528 1528 1528 1528 1528 1528 1528 1528 1528 1528 1528 1528 1527 1527 1527 1527 1528 1528 1528 1527 1527 1527 1526 1526 1525 1525 1525 1525 1525 1525 1525 1525 1525
1527 1528 1528 1528 1527 1527 1527 1527 1527 1527 1527 1527 1527 1527 1527 1527 1527 1527 1527 1527 1527 1527 1527 1527 1527 1527 1527 1527 1527 1527 1526 1526 1526 1526 1525 1525 1525 1524 1524 1524 1524 1524 1524
1525 1526 1526 1526 1526 1526 1526 1526 1526 1526 1526 1526 1526 1526 1526 1526 1526 1526 1526 1525 1525 1526 1526 1526 1526 1526 1526 1526 1526 1526 1526 1525 1525 1525 1525 1524 1524 1524 1523 1523 1522 1522 1522
1524 1524 1524 1524 1524 1524 1524 1524 1524 1524 1524 1524 1524 1524 1524 1524 1525 1524 1525 1525 1524 1524 1524 1524 1524 1525 1525 1525 1525 1525 1525 1524 1524 1524 1524 1523 1523 1522 1522 1522 1521 1521 1521
1522 1522 1522 1522 1522 1522 1522 1522 1522 1522 1523 1523 1523 1523 1523 1523 1523 1523 1523 1523 1524 1523 1523 1523 1523 1523 1524 1524 1524 1523 1523 1523 1523 1522 1522 1522 1521 1521 1520 1520 1520 1519 1519
1519 1520 1520 1520 1520 1520 1520 1520 1520 1521 1521 1521 1521 1521 1521 1521 1521 1521 1521 1521 1522 1522 1521 1521 1521 1522 1522 1522 1522 1522 1522 1521 1521 1521 1520 1520 1520 1519 1519 1518 1518 1517 1517
1517 1517 1517 1518 1518 1518 1518 1518 1518 1519 1519 1519 1519 1519 1519 1520 1520 1520 1520 1520 1520 1520 1519 1519 1520 1520 1520 1520 1520 1520 1520 1519 1519 1519 1518 1518 1518 1517 1517 1517 1516 1516 1515
1514 1515 1515 1515 1515 1515 1515 1516 1516 1516 1516 1517 1517 1517 1517 1517 1517 1517 1517 1517 1518 1517 1518 1517 1517 1518 1518 1518 1518 1518 1518 1517 1517 1517 1516 1516 1515 1515 1515 1514 1514 1514 1513
1512 1512 1512 1512 1513 1513 1513 1513 1514 1514 1514 1514 1515 1515 1515 1515 1515 1515 1515 1515 1515 1515 1515 1515 1515 1516 1516 1516 1516 1515 1515 1515 1514 1514 1514 1513 1513 1513 1512 1512 1512 1511 1511
1508 1509 1509 1510 1510 1510 1510 1511 1511 1512 1512 1512 1512 1512 1512 1513 1513 1513 1513 1513 1513 1513 1513 1513 1513 1513 1513 1513 1513 1512 1512 1512 1512 1511 1511 1511 1510 1510 1509 1509 1509 1508 1508
1505 1506 1506 1507 1507 1507 1508 1508 1508 1509 1509 1509 1509 1509 1510 1510 1510 1510 1510 1510 1510 1510 1510 1510 1510 1510 1510 1509 1509 1509 1509 1509 1509 1508 1508 1507 1507 1506 1506 1506 1506 1505 1505
1502 1503 1503 1503 1504 1504 1505 1505 1506 1506 1506 1506 1506 1506 1507 1507 1507 1507 1507 1507 1507 1507 1507 1507 1506 1506 1506 1507 1507 1506 1506 1506 1505 1506 1505 1504 1504 1503 1503 1503 1502 1502 1502
1498 1499 1500 1500 1501 1501 1502 1502 1502 1503 1503 1503 1503 1503 1503 1503 1503 1504 1504 1504 1504 1504 1504 1504 1504 1503 1504 1504 1504 1503 1503 1502 1502 1502 1502 1500 1500 1499 1500 1499 1499 1499 1499
1495 1495 1496 1496 1497 1498 1498 1499 1499 1499 1499 1499 1499 1500 1500 1500 1500 1500 1500 1500 1500 1500 1500 1500 1501 1501 1501 1501 1501 1500 1500 1500 1499 1499 1499 1497 1497 1496 1497 1496 1496 1496 1496
1491 1492 1492 1493 1493 1494 1495 1495 1496 1496 1495 1495 1496 1496 1496 1496 1496 1496 1496 1496 1496 1496 1497 1497 1497 1497 1497 1497 1497 1497 1496 1496 1495 1495 1495 1494 1493 1493 1493 1493 1493 1493 1493
1487 1488 1488 1489 1490 1490 1491 1492 1492 1492 1492 1491 1492 1492 1492 1492 1492 1493 1493 1492 1492 1493 1493 1493 1493 1493 1493 1493 1493 1493 1493 1492 1491 1491 1491 1491 1491 1491 1490 1490 1490 1490 1490